Location: ??????????
(31.2156°N, 29.9553°E)
Time: 04:18:49
(UTC+00:00)

Helios 1A Rocket - Pass Details

Date: 03 March 2021
Orbit: 563 x 585 km, 98.3° (Epoch: 14 April)

Event Time Altitude Azimuth Distance (km) Brightness Sun altitude
Rises 17:33:03 0° 178° (S) 2,770 6.3 -20.7°
Reaches altitude 10° 17:35:14 10° 184° (S) 1,872 5.5 -21.1°
Maximum altitude 17:39:10 48° 259° (W) 746 3.8 -22.0°
Drops below altitude 10° 17:43:05 10° 335° (NNW) 1,871 5.9 -22.8°
Sets 17:45:17 0° 341° (NNW) 2,769 6.7 -23.3°
